Home > Time Zones > World Clock > Weather > Spain > Palma > Past weeks

Flag for Spain Weather past 2 weeks in Palma, Majorca, Spain

Now
64 °F

Passing clouds.


Feels Like: 64 °F
Forecast: 64 / 78 °F
Wind: 1 mph from North

Location: Palma De Mallorca / Son San Juan

Current Time: Sep 23, 2014 at 9:14:58 AM

Latest Report: Sep 23, 2014 at 8:30 AM


Visibility: N/A

Pressure: 29.92 "Hg

Humidity: 94%

Dew point: 63 °F

Location of PalmaLocation

Historic Weather in Palma — Graph

°F

Palma temperature yesterday

Maximum temperature yesterday: 79 °F (at 10:00 AM)
Minimum temperature yesterday: 70 °F (at 3:00 AM)
Average temperature yesterday: 73 °F

Past Weeks' High & Low Weather Summary

 TemperatureHumidityPressure
High93 °F (Sep 9, 2:00 PM)100% (Sep 22, 10:30 PM)30.07 "Hg (Sep 22, 10:30 PM)
Low63 °F (Sep 23, 5:30 AM)38% (Sep 16, 4:00 PM)29.74 "Hg (Sep 17, 5:30 AM)
Average78 °F75%29.91 "Hg
* Reported Sep 8 8:00 AM — Sep 23 8:00 AM, Palma, Weather by CustomWeather, © 2014

Note: Actual official high and low records may vary slightly from our data, if they occured in-between our weather recording intervals... More about our weather records

Advertising

Palma weather history for previous 24 hours

 ConditionsComfort  
Time TempWeatherWind HumidityBarometerVisibility
8:00 AM
Sep 23
63 °FPassing clouds.1 mph94%29.89 "HgN/A
7:30 AM63 °FPassing clouds.1 mph94%29.89 "HgN/A
7:00 AM63 °FPassing clouds.No wind94%29.89 "HgN/A
6:30 AM63 °FPassing clouds.2 mph94%29.89 "HgN/A
6:00 AM63 °FPassing clouds.2 mph100%29.89 "HgN/A
5:30 AM63 °FPassing clouds.No wind94%29.89 "HgN/A
5:00 AM64 °FPassing clouds.No wind94%29.89 "HgN/A
4:30 AM64 °FPassing clouds.1 mph88%29.89 "HgN/A
4:00 AM66 °FPassing clouds.6 mph88%29.89 "HgN/A
3:30 AM66 °FPassing clouds.9 mph88%29.89 "HgN/A
3:00 AM68 °FPassing clouds.6 mph94%29.89 "HgN/A
2:30 AM68 °FPassing clouds.8 mph94%29.89 "HgN/A
2:00 AM68 °FPassing clouds.5 mph94%29.89 "HgN/A
1:30 AM68 °FPassing clouds.6 mph100%29.89 "HgN/A
1:00 AM68 °FPassing clouds.3 mph94%29.92 "HgN/A
12:30 AM68 °FPassing clouds.1 mph94%29.92 "HgN/A
12:00 AM68 °FPassing clouds.3 mph100%29.89 "HgN/A
11:30 PM
Sep 22
70 °FPassing clouds.No wind94%29.89 "HgN/A
11:00 PM70 °FPassing clouds.6 mph94%29.89 "HgN/A
10:30 PM70 °FPassing clouds.1 mph100%29.92 "HgN/A
10:00 PM70 °FPassing clouds.No wind94%29.92 "HgN/A
9:30 PM70 °FPassing clouds.1 mph94%29.89 "HgN/A
9:00 PM70 °FPassing clouds.2 mph94%29.89 "HgN/A
8:30 PM70 °FPassing clouds.5 mph94%29.86 "HgN/A
8:00 PM72 °FRain. Scattered clouds.3 mph94%29.86 "Hg6 mi
7:30 PM72 °FLight rain. Scattered clouds.2 mph88%29.89 "HgN/A
7:00 PM72 °FBroken clouds.1 mph94%29.89 "HgN/A
6:30 PM73 °FScattered clouds.2 mph89%29.92 "HgN/A
6:00 PM72 °FScattered clouds.1 mph94%29.89 "HgN/A
5:30 PM72 °FScattered clouds.3 mph94%29.89 "HgN/A
5:00 PM72 °FRain. Scattered clouds.8 mph94%29.89 "HgN/A
4:30 PM72 °FScattered clouds.6 mph94%29.92 "HgN/A
4:00 PM72 °FLight rain. Partly sunny.5 mph88%29.92 "Hg4 mi
3:30 PM72 °FLight rain. Partly sunny.7 mph88%29.95 "Hg4 mi
3:00 PM73 °FLight rain. Passing clouds.8 mph83%29.92 "HgN/A
2:30 PM73 °FThunderstorms. Scattered clouds.15 mph83%29.92 "HgN/A
2:00 PM75 °FThundershowers. Passing clouds.17 mph74%29.92 "HgN/A
1:30 PM77 °FThundershowers. Passing clouds.17 mph69%29.92 "HgN/A
1:00 PM77 °FPassing clouds.20 mph69%29.92 "HgN/A
12:30 PM77 °FPassing clouds.18 mph69%29.92 "HgN/A
12:00 PM79 °FPassing clouds.20 mph65%29.92 "HgN/A
11:30 AM79 °FPassing clouds.18 mph65%29.95 "HgN/A
11:00 AM79 °FScattered clouds.16 mph65%29.95 "HgN/A
10:30 AM79 °FScattered clouds.12 mph70%29.95 "HgN/A
10:00 AM79 °FScattered clouds.6 mph79%29.95 "HgN/A
9:30 AM77 °FPassing clouds.5 mph83%29.95 "HgN/A
9:00 AM75 °FPassing clouds.7 mph83%29.92 "HgN/A
Weather by CustomWeather, © 2014

See weather overviewHow to use our weather pages